www.pogodaiklimat.ru

Погода и климат >> Архив погоды >> Австралия >> Coober Pedy Airport


ПОГОДА в Coober Pedy Airport

  • Прогноз погоды в Coober Pedy Airport
  • Монитор погоды в Coober Pedy Airport
  • Климат города

АРХИВ ПОГОДЫ в Coober Pedy Airport

Время (UTC), дата Ветер
(напр.,м/с)
 
Видим.   Явления Облачность Т
(С)
Тd
(С)
f
(%)
Тe
(С)
Тes
(С)
Комфортность P
(гПа)
Po
(гПа)
Тmin
(С)
Tmax
(С)
R
(мм)
R24
(мм)
S
(см)
07 14.10 В 3 н/о н/о +28.4 -0.7 15 +26 +26 жарко 1016.0 989.9
08 14.10 ЮВ 6 н/о н/о +27.9 -0.2 16 +26 +26 жарко 1016.2 990.1
09 14.10 В 5 н/о н/о +26.8 +0.5 18 +25 +25 комфорт 1016.7 990.6
10 14.10 В 4 н/о н/о +24.5 +0.1 20 +23 +23 комфорт 1017.1 990.9
11 14.10 В 4 н/о н/о +22.5 +0.4 23 +22 +22 комфорт 1017.6 991.4
12 14.10 В 6 н/о н/о +22.8 +1.8 25 +22 +22 комфорт 1017.9 991.7
13 14.10 В 5 н/о н/о +21.7 +1.9 27 +21 +21 комфорт 1017.8 991.6
14 14.10 В 6 н/о н/о +21.0 +2.3 29 +21 +21 комфорт 1017.7 991.5
15 14.10 В 4 н/о н/о +19.7 +2.1 31 +20 +20 1017.4 991.2
16 14.10 ЮВ 5 н/о н/о +18.5 +2.4 34 +18 +18 1017.1 990.9
17 14.10 ЮВ 5 н/о н/о +18.1 +2.8 36 +18 +18 1016.7 990.6
18 14.10 В 5 н/о н/о +18.7 +3.3 36 +19 +19 1016.5 990.4
19 14.10 В 6 н/о н/о +18.5 +3.9 38 +18 +18 1016.5 990.4
20 14.10 В 5 н/о н/о +17.1 +3.8 41 +17 +17 1016.9 990.8
21 14.10 В 4 н/о н/о +17.0 +4.0 42 +17 +17 1017.6 991.4
22 14.10 В 8 н/о н/о +19.9 +4.4 36 +20 +20 1018.0 991.8
23 14.10 В 9 н/о н/о +22.3 +4.4 31 +22 +22 комфорт 1018.5 992.3
00 15.10 В 8 н/о н/о +24.5 +4.8 28 +24 +24 комфорт 1018.7 992.5
01 15.10 В 6 н/о н/о +26.1 +4.6 25 +25 +25 комфорт 1018.2 992.0
02 15.10 В 5 н/о н/о +26.8 +4.0 23 +26 +26 жарко 1017.4 991.2
03 15.10 В 6 н/о н/о +28.0 +2.2 19 +26 +26 жарко 1016.5 990.4
04 15.10 ЮВ 4 н/о н/о +28.7 +2.1 18 +27 +27 жарко 1015.6 989.5
05 15.10 ЮВ 5 н/о н/о +29.0 +1.5 17 +27 +27 жарко 1014.7 988.6
06 15.10 В 6 н/о н/о +29.3 0.0 15 +27 +27 жарко 1014.0 987.9
07 15.10 В 5 н/о н/о +29.3 -0.9 14 +26 +26 жарко 1013.9 987.8
08 15.10 В 5 н/о н/о +29.3 -0.9 14 +26 +26 жарко 1014.0 987.9
09 15.10 В 5 н/о н/о +28.0 -1.0 15 +25 +25 комфорт 1014.3 988.2
10 15.10 В 4 н/о н/о +25.6 -0.5 18 +24 +24 комфорт 1014.9 988.8
11 15.10 ЮВ 4 н/о н/о +23.3 -0.2 21 +22 +22 комфорт 1015.6 989.5
12 15.10 ЮВ 4 н/о н/о +21.8 -0.2 23 +21 +21 комфорт 1016.2 990.1
13 15.10 В 4 н/о н/о +21.3 +0.5 25 +21 +21 комфорт 1016.3 990.2
14 15.10 В 4 н/о н/о +20.0 -0.1 26 +20 +20 1016.5 990.4
15 15.10 В 3 н/о н/о +19.1 -0.3 27 +19 +19 1016.2 990.1
16 15.10 ЮВ 3 н/о н/о +18.4 +0.1 29 +19 +19 1015.5 989.4
17 15.10 ЮВ 4 н/о н/о +17.9 +0.1 30 +18 +18 1015.1 989.0
18 15.10 ЮВ 4 н/о н/о +18.1 +0.7 31 +18 +18 1014.7 988.6
19 15.10 ЮВ 5 н/о н/о +17.8 +0.9 32 +17 +17 1014.8 988.7
20 15.10 ЮВ 4 н/о н/о +16.5 +1.0 35 +16 +16 1015.0 988.9
21 15.10 ЮВ 4 н/о н/о +18.3 +1.3 32 +18 +18 1015.5 989.4
22 15.10 ЮВ 5 н/о н/о +22.6 +2.1 26 +22 +22 комфорт 1015.8 989.7
23 15.10 В 6 н/о н/о +26.6 +4.4 24 +26 +26 жарко 1015.9 989.8
00 16.10 В 7 н/о н/о +28.4 +5.9 24 +27 +27 жарко 1015.7 989.6
01 16.10 В 6 н/о н/о +30.7 +4.4 19 +29 +29 жарко 1015.2 989.1
02 16.10 СВ 6 н/о н/о +31.7 +1.0 14 +29 +29 жарко 1014.2 988.1
03 16.10 В 8 н/о н/о +33.2 +1.1 13 +30 +30 жарко 1013.5 987.4
04 16.10 СВ 8 н/о н/о +33.4 +0.1 12 +30 +30 жарко 1012.5 986.5
05 16.10 СВ 9 н/о н/о +34.1 +0.7 12 +31 +31 жарко 1011.5 985.5
06 16.10 СВ 7 н/о н/о +33.5 +0.2 12 +30 +30 жарко 1011.1 985.1
07 16.10 В 8 н/о н/о +33.3 +1.2 13 +30 +30 жарко 1010.8 984.8
08 16.10 В 8 н/о н/о +32.5 +0.6 13 +29 +29 жарко 1011.0 985.0
09 16.10 СВ 7 н/о н/о +31.0 +0.4 14 +28 +28 жарко 1011.4 985.4
10 16.10 СВ 6 н/о н/о +28.9 +2.2 18 +27 +27 жарко 1012.2 986.2
11 16.10 В 8 н/о н/о +27.9 +4.2 22 +26 +26 жарко 1012.9 986.9
12 16.10 В 7 н/о н/о +26.5 +3.7 23 +25 +25 комфорт 1013.7 987.6
13 16.10 В 6 н/о н/о +25.8 +3.7 24 +25 +25 комфорт 1014.0 987.9
14 16.10 В 6 н/о н/о +24.9 +3.5 25 +24 +24 комфорт 1013.8 987.7
15 16.10 В 6 н/о н/о +24.1 +3.4 26 +23 +23 комфорт 1013.6 987.5
16 16.10 СВ 6 н/о н/о +22.6 +3.2 28 +22 +22 комфорт 1013.4 987.3
17 16.10 СВ 5 н/о н/о +21.4 +3.1 30 +21 +21 комфорт 1013.0 987.0
18 16.10 СВ 5 н/о н/о +20.0 +2.8 32 +20 +20 1012.9 986.9
19 16.10 СВ 4 н/о н/о +19.2 +3.4 35 +19 +19 1013.2 987.1
20 16.10 СВ 5 н/о н/о +19.5 +4.8 38 +20 +20 1013.5 987.4
21 16.10 СВ 7 н/о н/о +20.8 +6.4 39 +22 +22 комфорт 1013.9 987.8
22 16.10 СВ 7 н/о н/о +22.4 +6.2 35 +23 +23 комфорт 1014.2 988.1
23 16.10 СВ 8 н/о н/о +26.4 +8.4 32 +26 +26 жарко 1014.4 988.3
00 17.10 СВ 9 н/о н/о +28.6 +8.3 28 +28 +28 жарко 1014.3 988.2
01 17.10 СВ 8 н/о н/о +31.0 +8.1 24 +30 +30 жарко 1013.6 987.5
02 17.10 С 5 н/о н/о +31.5 +6.5 21 +30 +30 жарко 1012.7 986.7
03 17.10 С 7 н/о н/о +32.1 +4.8 18 +30 +30 жарко 1011.7 985.7
04 17.10 С 6 н/о н/о +32.3 +5.0 18 +30 +30 жарко 1011.0 985.0
05 17.10 С 7 н/о н/о +33.1 +3.0 15 +30 +30 жарко 1010.3 984.3
06 17.10 СВ 6 н/о н/о +33.2 +2.1 14 +30 +30 жарко 1009.8 983.8
07 17.10 СВ 5 н/о н/о +32.9 +2.9 15 +30 +30 жарко 1009.8 983.8
08 17.10 СВ 5 н/о н/о +32.3 +2.4 15 +29 +29 жарко 1009.9 983.9
09 17.10 СВ 6 н/о н/о +30.9 +3.8 18 +29 +29 жарко 1010.7 984.7
10 17.10 В 6 н/о н/о +29.0 +3.8 20 +27 +27 жарко 1011.6 985.6
11 17.10 В 6 н/о н/о +27.6 +4.0 22 +26 +26 жарко 1012.4 986.4
12 17.10 В 7 н/о н/о +26.6 +6.1 27 +26 +26 жарко 1013.0 987.0
13 17.10 В 7 н/о н/о +25.5 +6.7 30 +25 +25 комфорт 1013.0 987.0
14 17.10 СВ 8 н/о н/о +24.8 +7.0 32 +25 +25 комфорт 1012.8 986.8
15 17.10 СВ 6 н/о н/о +23.6 +7.3 35 +24 +24 комфорт 1012.5 986.5
16 17.10 СВ 6 н/о н/о +22.7 +8.0 39 +24 +24 комфорт 1012.0 986.0
17 17.10 СВ 6 н/о н/о +22.7 +8.4 40 +24 +24 комфорт 1011.4 985.4
18 17.10 СВ 5 н/о н/о +21.3 +8.6 44 +22 +22 комфорт 1011.1 985.1
19 17.10 СВ 6 н/о н/о +20.4 +8.7 47 +22 +22 комфорт 1011.0 985.0
20 17.10 СВ 7 н/о н/о +21.0 +9.6 48 +22 +22 комфорт 1011.5 985.5
21 17.10 СВ 7 н/о н/о +22.2 +9.7 45 +24 +24 комфорт 1012.1 986.1
22 17.10 СВ 6 н/о н/о +24.8 +9.9 39 +26 +26 жарко 1012.7 986.7
23 17.10 СВ 10 н/о н/о +28.6 +10.8 33 +29 +29 жарко 1013.2 987.1
00 18.10 СВ 10 н/о н/о +30.6 +10.5 29 +31 +31 жарко 1013.3 987.2
01 18.10 СВ 9 н/о н/о +32.3 +9.8 25 +32 +32 жарко 1012.8 986.8
02 18.10 С 9 н/о н/о +33.5 +9.5 23 +33 +33 жарко 1012.1 986.1
03 18.10 С 9 н/о н/о +34.0 +7.9 20 +32 +32 жарко 1011.4 985.4
04 18.10 С 7 н/о н/о +34.8 +7.0 18 +33 +33 жарко 1010.7 984.7
05 18.10 СВ 3 н/о н/о +34.3 +5.8 17 +32 +32 жарко 1009.9 983.9
06 18.10 СЗ 5 н/о н/о +35.0 +5.4 16 +32 +32 жарко 1009.7 983.7
07 18.10 СВ 4 н/о н/о +34.8 +5.3 16 +32 +32 жарко 1009.6 983.6
08 18.10 В 1 н/о н/о +34.7 +5.2 16 +32 +32 жарко 1009.8 983.8
09 18.10 В 1 н/о н/о +33.6 +4.3 16 +31 +31 жарко 1010.6 984.6
10 18.10 СВ 3 н/о н/о +30.9 +5.3 20 +29 +29 жарко 1011.3 985.3
11 18.10 СВ 4 н/о н/о +29.3 +5.4 22 +28 +28 жарко 1012.2 986.2
12 18.10 СВ 7 н/о н/о +29.2 +7.2 25 +28 +28 жарко 1012.6 986.6
13 18.10 СВ 6 н/о н/о +28.4 +7.1 26 +28 +28 жарко 1012.8 986.8
14 18.10 СВ 6 н/о н/о +26.8 +7.8 30 +27 +27 жарко 1012.9 986.9
15 18.10 Ю 3 н/о н/о +25.1 +8.1 34 +25 +25 комфорт 1013.5 987.4
16 18.10 Ю 2 н/о н/о +26.6 +9.5 34 +27 +27 жарко 1014.4 988.3
17 18.10 Ю 5 н/о н/о +25.8 +8.3 33 +26 +26 жарко 1014.3 988.2
18 18.10 Ю 5 н/о н/о +25.2 +8.7 35 +26 +26 жарко 1014.8 988.7
19 18.10 Ю 9 н/о н/о +23.3 +11.7 48 +26 +26 жарко 1015.9 989.8
20 18.10 Ю 9 н/о н/о +22.8 +13.0 54 +26 +26 жарко 1016.9 990.8
21 18.10 Ю 11 н/о н/о +20.3 +12.8 62 +22 +22 комфорт 1018.2 992.0
22 18.10 Ю 12 н/о н/о +18.9 +12.2 65 +19 +19 1018.2 992.0
23 18.10 Ю 12 н/о н/о +20.0 +12.0 60 +21 +21 комфорт 1019.1 992.9
00 19.10 Ю 11 н/о н/о +23.1 +12.1 50 +26 +26 жарко 1019.8 993.6
01 19.10 Ю 11 н/о н/о +25.7 +11.8 42 +27 +27 жарко 1019.7 993.5
02 19.10 Ю 11 н/о н/о +28.0 +10.2 33 +28 +28 жарко 1019.4 993.2
03 19.10 Ю 10 н/о н/о +28.9 +10.6 32 +29 +29 жарко 1019.3 993.1
04 19.10 Ю 10 н/о н/о +28.8 +10.5 32 +29 +29 жарко 1019.3 993.1
05 19.10 Ю 9 н/о н/о +29.3 +10.4 31 +29 +29 жарко 1018.9 992.7
06 19.10 Ю 8 н/о н/о +29.6 +10.2 30 +30 +30 жарко 1018.7 992.5
07 19.10 Ю 10 н/о н/о +27.9 +10.6 34 +28 +28 жарко 1019.2 993.0
08 19.10 Ю 12 н/о н/о +26.3 +8.8 33 +27 +27 жарко 1019.9 993.7
09 19.10 Ю 11 н/о н/о +24.2 +8.6 37 +25 +25 комфорт 1021.0 994.7
10 19.10 Ю 10 н/о н/о +22.5 +7.9 39 +24 +24 комфорт 1022.0 995.7
11 19.10 Ю 10 н/о н/о +22.2 +9.0 43 +24 +24 комфорт 1022.7 996.4
12 19.10 Ю 9 н/о н/о +22.1 +7.9 40 +23 +23 комфорт 1023.1 996.8
13 19.10 Ю 10 н/о н/о +22.0 +5.4 34 +22 +22 комфорт 1023.2 996.9
14 19.10 Ю 11 н/о н/о +19.7 +5.4 39 +19 +19 1023.6 997.3
15 19.10 Ю 11 н/о н/о +18.6 +5.1 41 +18 +18 1023.6 997.3
16 19.10 Ю 11 н/о н/о +17.5 +4.8 43 +16 +16 1023.5 997.2
17 19.10 Ю 11 н/о н/о +16.3 +5.0 47 +14 +14 1023.8 997.5
18 19.10 Ю 11 н/о н/о +15.3 +5.2 51 +13 +13 1024.2 997.9
19 19.10 Ю 10 н/о н/о +14.7 +5.2 53 +12 +12 1025.1 998.7
20 19.10 ЮВ 9 н/о н/о +14.2 +6.3 59 +12 +12 1026.3 999.9
21 19.10 Ю 9 н/о н/о +14.1 +6.9 62 +12 +12 1027.1 1000.7
22 19.10 ЮВ 11 н/о н/о +14.6 +5.9 56 +12 +12 1027.4 1001.0
23 19.10 ЮВ 9 н/о н/о +16.3 +5.6 49 +15 +15 1028.1 1001.7
00 20.10 ЮВ 9 н/о н/о +17.9 +4.5 41 +17 +17 1028.0 1001.6
01 20.10 ЮВ 8 н/о н/о +20.0 +3.7 34 +20 +20 1027.8 1001.4
02 20.10 Ю 7 н/о н/о +21.8 +2.0 27 +22 +22 комфорт 1027.2 1000.8
03 20.10 ЮВ 8 н/о н/о +23.7 +0.7 22 +23 +23 комфорт 1026.3 999.9
04 20.10 Ю 9 н/о н/о +25.2 0.0 19 +24 +24 комфорт 1025.4 999.0
05 20.10 Ю 8 н/о н/о +25.8 -0.3 18 +24 +24 комфорт 1024.4 998.1
06 20.10 ЮВ 8 н/о н/о +26.8 +0.5 18 +25 +25 комфорт 1023.9 997.6
07 20.10 Ю 7 н/о н/о +26.0 -0.1 18 +24 +24 комфорт 1023.6 997.3
08 20.10 ЮВ 8 н/о н/о +25.9 -0.2 18 +24 +24 комфорт 1023.6 997.3
09 20.10 Ю 8 н/о н/о +24.2 +0.5 21 +23 +23 комфорт 1024.3 998.0
10 20.10 Ю 7 н/о н/о +22.5 +1.5 25 +22 +22 комфорт 1025.1 998.7
11 20.10 Ю 7 н/о н/о +21.2 +1.5 27 +21 +21 комфорт 1025.8 999.4
12 20.10 Ю 7 н/о н/о +20.3 +2.2 30 +20 +20 1026.3 999.9
13 20.10 Ю 6 н/о н/о +19.5 +2.4 32 +19 +19 1026.3 999.9
14 20.10 Ю 5 н/о н/о +18.6 +1.6 32 +18 +18 1026.1 999.7
15 20.10 ЮВ 5 н/о н/о +17.7 +1.7 34 +17 +17 1025.9 999.5
16 20.10 ЮВ 5 н/о н/о +16.8 +1.7 36 +16 +16 1025.5 999.1
17 20.10 ЮВ 5 н/о н/о +15.3 +1.4 39 +14 +14 1024.5 998.2
18 20.10 Ю 5 н/о н/о +14.7 +2.3 43 +14 +14 1025.1 998.7
19 20.10 Ю 5 н/о н/о +13.8 +2.7 47 +12 +12 1025.2 998.8
20 20.10 ЮВ 6 н/о н/о +13.1 +3.2 51 +11 +11 1025.1 998.7
21 20.10 ЮВ 6 н/о н/о +13.2 +4.1 54 +11 +11 1025.8 999.4
22 20.10 ЮВ 7 н/о н/о +15.2 +4.9 50 +14 +14 1026.2 999.8
23 20.10 ЮВ 7 н/о н/о +17.9 +3.8 39 +17 +17 1026.5 1000.1
00 21.10 В 6 н/о н/о +20.8 +2.6 30 +21 +21 комфорт 1026.7 1000.3
01 21.10 В 6 н/о н/о +22.2 +1.3 25 +22 +22 комфорт 1025.9 999.5
02 21.10 В 4 н/о н/о +23.5 +0.6 22 +23 +23 комфорт 1025.1 998.7
03 21.10 Ю 4 н/о н/о +24.0 -0.3 20 +23 +23 комфорт 1024.3 998.0
04 21.10 ЮЗ 4 н/о н/о +25.2 -1.6 17 +23 +23 комфорт 1023.5 997.2
05 21.10 Ю 5 н/о н/о +27.6 -1.3 15 +25 +25 комфорт 1022.5 996.2
06 21.10 ЮВ 6 н/о н/о +27.8 -2.1 14 +25 +25 комфорт 1021.7 995.4
07 21.10 Ю 5 н/о н/о +27.7 -2.2 14 +25 +25 комфорт 1021.4 995.1

 

Местоположение метеостанции Coober Pedy Airport (Южная Австралия, Австралия): широта -29.03 долгота 134.71 высота над уровнем моря 226 м.

В архиве по умолчанию представлена погода в Coober Pedy Airport за последнюю неделю. Архивные данные за месяц целиком и за предыдущие месяцы, начиная с января 2011 года, Вы можете получить, выбрав интересующий диапазон дат из раскрывающегося списка и нажав кнопку "Ввод!".

Внимание! Время в таблицах - всемирное. Для получения местного времени необходимо прибавить поправку, которая в Coober Pedy Airport равна 9.5 ч.

Смотрите также архив погоды в соседних городах и на ближайших метеорологических станциях:

Погода в Oodnadatta Airport (Южная Австралия, Австралия) (180 км)
Погода в Tarcoola Aero (Южная Австралия, Австралия) (188 км)
Погода в Olympic Dam Aerodrome (Южная Австралия, Австралия) (264 км)
Погода в Woomera Aerodrome (Южная Австралия, Австралия) (311 км)
Погода в Marree Aero (Южная Австралия, Австралия) (332 км)
Погода в Ceduna Amo (Южная Австралия, Австралия) (358 км)
Погода в Pukatja (Южная Австралия, Австралия) (395 км)
Погода в Leigh Creek Airport (Южная Австралия, Австралия) (398 км)
Погода в Minnipa Pirsa (Южная Австралия, Австралия) (427 км)
Погода в Wudinna Aero (Южная Австралия, Австралия) (453 км)

Пояснения к столбцам:

Ветер - указаны скорость ветра в м/с - средняя за 10 мин, порывы в срок и между сроками (в фигурных скобках) и направление, откуда дует ветер: С - северный, СВ - северо-восточный, В - восточный, ЮВ - юго-восточный, Ю - южный, ЮЗ - юго-западный, З - западный, СЗ - северо-западный.
Видимость - горизонтальная дальность видимости в метрах или километрах. При видимости от 1 до 10 км при отсутствии осадков обычно наблюдается дымка, при ухудшении видимости до 1 км и менее - туман. В сухую погоду видимость может ухудшаться дымом, пылью или мглою.
Явления - указаны атмосферные явления, наблюдавшиеся в срок или в последний час перед сроком; фигурными скобками обозначены явления, наблюдавшиеся между сроками (за 1-3 часа до срока); квадратными скобками обозначены град или гололедные отложения с указанием их диаметра в мм.
Облачность - указаны через наклонную черту общая и нижняя облачность в баллах и высота нижней границы облаков в метрах; квадратными скобками обозначены формы облаков: Ci - перистые, Cs - перисто-слоистые, Cc - перисто-кучевые, Ac - высококучевые, As - высокослоистые, Sc - слоисто-кучевые, Ns - слоисто-дождевые, Cu - кучевые, Cb - кучево-дождевые. Подробнее классификацию облаков см. в Атласе облаков (PDF).
T - Температура воздуха - температура, измеренная на высоте 2 м над землей.
Td - Температура точки росы - температура, при понижении до которой содержащийся в воздухе водяной пар достигнет насыщения.
f - Относительная влажность воздуха - влажноcть воздуха, измеренная на высоте 2 м над землей.
Te - Эффективная температура - температура, которую ощущает одетый по сезону человек в тени. Характеристика душности погоды. При расчете учитывается влияние влажности воздуха и скорости ветра на теплоощущения человека.
Tes - Эффективная температура на солнце - температура, которую ощущает человек, с поправкой на солнечный нагрев. Характеристика знойности погоды. Зависит от высоты солнца над горизонтом, облачности и скорости ветра. Ночью, в пасмурную погоду, а также при ветре 12 м/с и более поправка равна нулю.
P - Атмосферное давление - приведенное к уровню моря атмосферное давление.
Po - Атмосферное давление - измеренное на уровне метеостанции атмосферное давление.
Tmin - Минимальная температура - минимум температуры воздуха на высоте 2 м над землей.
Tmax - Максимальная температура - максимум температуры воздуха на высоте 2 м над землей.
R - Количество осадков - Количество выпавших осадков за период времени, мм. При наведении курсора мыши на число - период времени, за который выпало указанное количество осадков.
R24 - Количество осадков - Количество выпавших осадков за 24 часа, мм.
S - Снежный покров - Высота снежного покрова, см. При наведении курсора мыши на число - состояние снежного покрова и степень покрытия местности в баллах.